{"data":{"norad_id":62310,"epoch":"2026-09-21T13:14:07.833120Z","epoch_age_seconds":86694,"freshness":"FRESH","line1":"1 62310U 24239K   26264.55147955  .00017465  00000+0  52662-3 0  9999","line2":"2 62310  53.1584   0.4449 0001025  76.1346 283.9771 15.34412968 99420","mean_motion":15.34412968,"eccentricity":0.0001025,"inclination_deg":53.1584,"raan_deg":0.4449,"arg_perigee_deg":76.1346,"mean_anomaly_deg":283.9771,"bstar":0.00052662,"rev_number":9942,"period_min":93.846964932585,"perigee_km":461.96351467575,"apogee_km":463.36587902361,"semimajor_km":6840.8016968497,"source":"CELESTRAK","updated_at":"2026-09-22T09:00:49.572463Z"}}